• In Italy
  • List of Countries
  • For 7 days
  • Water Temperature
  • Satellite Maps
  • Weather Map
  • Weather Widgets
  • user-avatar
    Login

    Hourly Weather Corozal

    Today, 25 February, Sunday

    Time Temperature Precipitation Wind Pressure Humidity
    00:00 +23°C° 0 mm 2 mps 761 mmHg 94%
    01:00 +23°C° 0 mm 2 mps 761 mmHg 94%
    02:00 +23°C° 0 mm 2 mps 761 mmHg 94%
    03:00 +23°C° 0 mm 2 mps 761 mmHg 95%
    04:00 +23°C° 0 mm 2 mps 761 mmHg 95%
    05:00 +23°C° 0 mm 2 mps 761 mmHg 95%
    06:00 +23°C° 0 mm 2 mps 761 mmHg 95%
    07:00 +25°C° 0 mm 3 mps 761 mmHg 86%
    08:00 +27°C° 0 mm 3 mps 762 mmHg 78%
    09:00 +29°C° 0 mm 4 mps 762 mmHg 69%
    10:00 +30°C° 0 mm 4 mps 762 mmHg 63%
    11:00 +32°C° 0 mm 4 mps 762 mmHg 58%
    12:00 +33°C° 0 mm 4 mps 762 mmHg 52%
    13:00 +33°C° 0 mm 4 mps 761 mmHg 52%
    14:00 +33°C° 0 mm 4 mps 760 mmHg 52%
    15:00 +33°C° 0 mm 4 mps 760 mmHg 53%
    16:00 +30°C° 0 mm 4 mps 760 mmHg 61%
    17:00 +29°C° 0 mm 3 mps 760 mmHg 69%
    18:00 +27°C° 0 mm 3 mps 760 mmHg 78%
    19:00 +26°C° 0 mm 3 mps 761 mmHg 83%
    20:00 +25°C° 0 mm 2 mps 761 mmHg 89%
    21:00 +24°C° 0 mm 2 mps 761 mmHg 94%
    22:00 +24°C° 0 mm 2 mps 762 mmHg 94%
    23:00 +24°C° 0 mm 2 mps 762 mmHg 95%

    Tomorrow, 26 February, Monday

    Time Temperature Precipitation Wind Pressure Humidity
    00:00 +24°C° 0 mm 2 mps 762 mmHg 95%
    01:00 +23°C° 0 mm 2 mps 762 mmHg 95%
    02:00 +23°C° 0 mm 2 mps 761 mmHg 95%
    03:00 +23°C° 0 mm 2 mps 761 mmHg 96%
    04:00 +23°C° 0 mm 2 mps 761 mmHg 96%
    05:00 +23°C° 0 mm 2 mps 761 mmHg 95%
    06:00 +24°C° 0 mm 2 mps 761 mmHg 95%
    07:00 +25°C° 0 mm 3 mps 762 mmHg 86%
    08:00 +27°C° 0 mm 3 mps 762 mmHg 77%
    09:00 +29°C° 0 mm 4 mps 763 mmHg 68%
    10:00 +30°C° 0 mm 4 mps 763 mmHg 63%
    11:00 +32°C° 0 mm 4 mps 763 mmHg 58%
    12:00 +33°C° 0 mm 4 mps 762 mmHg 53%
    13:00 +33°C° 0.1 mm 4 mps 762 mmHg 53%
    14:00 +33°C° 0.1 mm 4 mps 761 mmHg 54%
    15:00 +33°C° 0.1 mm 3 mps 761 mmHg 54%
    16:00 +30°C° 0.1 mm 3 mps 761 mmHg 62%
    17:00 +28°C° 0.1 mm 3 mps 761 mmHg 70%
    18:00 +27°C° 0.1 mm 2 mps 762 mmHg 78%
    19:00 +26°C° 0 mm 2 mps 762 mmHg 83%
    20:00 +25°C° 0 mm 2 mps 763 mmHg 88%
    21:00 +24°C° 0 mm 2 mps 763 mmHg 93%
    22:00 +24°C° 0 mm 2 mps 763 mmHg 93%
    23:00 +24°C° 0 mm 2 mps 763 mmHg 94%

    Day after tomorrow, 27 February, Tuesday

    Time Temperature Precipitation Wind Pressure Humidity
    00:00 +24°C° 0 mm 2 mps 763 mmHg 94%
    01:00 +24°C° 0 mm 2 mps 762 mmHg 95%
    02:00 +23°C° 0 mm 2 mps 762 mmHg 95%
    03:00 +23°C° 0 mm 2 mps 762 mmHg 95%
    04:00 +23°C° 0 mm 2 mps 762 mmHg 96%
    05:00 +23°C° 0 mm 2 mps 762 mmHg 96%
    06:00 +23°C° 0 mm 2 mps 762 mmHg 96%
    07:00 +25°C° 0 mm 2 mps 763 mmHg 88%
    08:00 +27°C° 0 mm 2 mps 763 mmHg 79%
    09:00 +29°C° 0 mm 3 mps 764 mmHg 70%
    10:00 +30°C° 0 mm 3 mps 764 mmHg 62%
    11:00 +31°C° 0 mm 3 mps 763 mmHg 55%
    12:00 +34°C° 0 mm 3 mps 763 mmHg 47%
    13:00 +34°C° 0 mm 3 mps 762 mmHg 47%
    14:00 +34°C° 0 mm 3 mps 761 mmHg 47%
    15:00 +33°C° 0 mm 3 mps 761 mmHg 47%
    16:00 +31°C° 0 mm 3 mps 761 mmHg 55%
    17:00 +29°C° 0 mm 3 mps 761 mmHg 63%
    18:00 +27°C° 0 mm 2 mps 761 mmHg 71%
    19:00 +26°C° 0 mm 2 mps 762 mmHg 77%
    20:00 +25°C° 0 mm 2 mps 762 mmHg 83%
    21:00 +24°C° 0 mm 2 mps 763 mmHg 89%
    22:00 +23°C° 0 mm 2 mps 763 mmHg 91%
    23:00 +23°C° 0 mm 2 mps 762 mmHg 93%

    28 February, Wednesday

    Time Temperature Precipitation Wind Pressure Humidity
    00:00 +23°C° 0 mm 2 mps 762 mmHg 95%
    01:00 +21°C° 0 mm 2 mps 762 mmHg 95%
    02:00 +22°C° 0 mm 1 mps 761 mmHg 96%
    03:00 +22°C° 0 mm 1 mps 761 mmHg 96%
    04:00 +22°C° 0 mm 1 mps 761 mmHg 96%
    05:00 +22°C° 0 mm 1 mps 761 mmHg 97%
    06:00 +22°C° 0 mm 1 mps 761 mmHg 97%
    07:00 +24°C° 0 mm 2 mps 761 mmHg 87%
    08:00 +27°C° 0 mm 2 mps 762 mmHg 77%
    09:00 +29°C° 0 mm 3 mps 762 mmHg 67%
    10:00 +30°C° 0 mm 3 mps 762 mmHg 61%
    11:00 +31°C° 0 mm 3 mps 761 mmHg 55%
    12:00 +33°C° 0 mm 3 mps 761 mmHg 49%
    13:00 +33°C° 0 mm 3 mps 760 mmHg 49%
    14:00 +33°C° 0 mm 4 mps 759 mmHg 49%
    15:00 +33°C° 0 mm 4 mps 759 mmHg 48%
    16:00 +30°C° 0 mm 3 mps 759 mmHg 56%
    17:00 +28°C° 0 mm 3 mps 759 mmHg 64%
    18:00 +27°C° 0 mm 3 mps 759 mmHg 72%
    19:00 +26°C° 0 mm 2 mps 760 mmHg 78%
    20:00 +24°C° 0 mm 2 mps 760 mmHg 84%
    21:00 +23°C° 0 mm 2 mps 760 mmHg 90%
    22:00 +23°C° 0 mm 2 mps 760 mmHg 91%
    23:00 +23°C° 0 mm 2 mps 760 mmHg 93%

    1 March, Thursday

    Time Temperature Precipitation Wind Pressure Humidity
    00:00 +23°C° 0 mm 2 mps 760 mmHg 94%
    01:00 +23°C° 0 mm 2 mps 759 mmHg 94%
    02:00 +23°C° 0 mm 2 mps 759 mmHg 95%
    03:00 +23°C° 0 mm 2 mps 759 mmHg 95%
    04:00 +23°C° 0 mm 2 mps 759 mmHg 95%
    05:00 +23°C° 0 mm 2 mps 759 mmHg 96%
    06:00 +23°C° 0 mm 2 mps 759 mmHg 96%
    07:00 +25°C° 0 mm 3 mps 760 mmHg 86%
    08:00 +27°C° 0 mm 3 mps 760 mmHg 76%
    09:00 +29°C° 0 mm 4 mps 761 mmHg 67%
    10:00 +30°C° 0 mm 4 mps 761 mmHg 62%
    11:00 +33°C° 0 mm 4 mps 760 mmHg 58%
    12:00 +34°C° 0 mm 4 mps 760 mmHg 53%
    13:00 +34°C° 0 mm 3 mps 759 mmHg 53%
    14:00 +34°C° 0 mm 3 mps 759 mmHg 52%
    15:00 +34°C° 0 mm 3 mps 758 mmHg 52%
    16:00 +31°C° 0 mm 3 mps 758 mmHg 60%
    17:00 +29°C° 0 mm 3 mps 759 mmHg 67%
    18:00 +27°C° 0 mm 2 mps 759 mmHg 75%
    19:00 +26°C° 0 mm 2 mps 760 mmHg 82%
    20:00 +25°C° 0 mm 2 mps 760 mmHg 89%
    21:00 +24°C° 0 mm 2 mps 761 mmHg 95%
    22:00 +24°C° 0 mm 2 mps 761 mmHg 96%
    23:00 +23°C° 0 mm 2 mps 761 mmHg 97%

    2 March, Friday

    Time Temperature Precipitation Wind Pressure Humidity
    00:00 +23°C° 0 mm 2 mps 761 mmHg 98%
    01:00 +23°C° 0 mm 2 mps 760 mmHg 96%
    02:00 +24°C° 0 mm 2 mps 760 mmHg 95%
    03:00 +24°C° 0 mm 2 mps 760 mmHg 94%
    04:00 +24°C° 0 mm 2 mps 760 mmHg 95%
    05:00 +24°C° 0 mm 1 mps 761 mmHg 96%
    06:00 +23°C° 0 mm 1 mps 761 mmHg 96%
    07:00 +25°C° 0 mm 2 mps 761 mmHg 87%
    08:00 +27°C° 0 mm 2 mps 762 mmHg 77%
    09:00 +29°C° 0 mm 2 mps 762 mmHg 68%
    10:00 +30°C° 0.1 mm 2 mps 762 mmHg 62%
    11:00 +32°C° 0.1 mm 2 mps 761 mmHg 56%
    12:00 +34°C° 0.1 mm 3 mps 761 mmHg 50%
    13:00 +34°C° 0 mm 3 mps 760 mmHg 49%
    14:00 +34°C° 0 mm 3 mps 760 mmHg 48%
    15:00 +34°C° 0 mm 3 mps 759 mmHg 47%
    16:00 +31°C° 0 mm 3 mps 759 mmHg 55%
    17:00 +30°C° 0 mm 2 mps 760 mmHg 62%
    18:00 +28°C° 0 mm 2 mps 760 mmHg 69%
    19:00 +27°C° 0 mm 2 mps 760 mmHg 76%
    20:00 +26°C° 0 mm 2 mps 761 mmHg 83%
    21:00 +25°C° 0 mm 2 mps 761 mmHg 90%
    22:00 +24°C° 0 mm 2 mps 761 mmHg 93%
    23:00 +24°C° 0 mm 2 mps 761 mmHg 95%
    Show more